Regional Weather Roundup
Issued by NWS State College, PA

Home | Current Version | Previous Version | Text Only | Print | Product List | Glossary Off
Versions: 1 2 3 4 5 6 7 8 9 10 11 12 13 14 15 16 17 18 19 20 21 22 23 24 25 26 27 28 29 30 31 32 33 34 35 36 37 38 39 40 41 42 43 44 45 46 47 48 49 50

000
ASUS41 KCTP 031803
RWRCTP

REGIONAL WEATHER ROUNDUP
NATIONAL WEATHER SERVICE STATE COLLEGE PA
100 PM EST TUE MAR 03 2015

Note: "fair" indicates few or no clouds below 12,000 feet with no
significant weather and/or obstructions to visibility.

* = STATION THAT DOES NOT REPORT PRECIPITATION /E.G. RAIN...SNOW...ETC/
    THUNDER OR FOG.

PAZ002>004-007>009-013>016-020>023-029>032-031900-
WESTERN PENNSYLVANIA

CITY           SKY/WX    TMP DP  RH WIND       PRES   REMARKS
ERIE           FRZ RAIN  28  23  81 SE15      29.91F
MEADVILLE      FRZ RAIN  24  20  84 VRB6      29.89F
FRANKLIN*      CLOUDY    25  19  80 SE15      29.93F WCI  12
NEW CASTLE     MIX PCPN  29  20  69 VRB5      29.93F
BEAVER COUNTY  CLOUDY    28  19  69 SE12G17   29.94F
BUTLER*        CLOUDY    28  19  69 SE10      29.96F
PITTSBURGH INT CLOUDY    33  20  58 SE13      29.93F
PITTSBURGH     CLOUDY    34  28  79 MISG      29.96F
INDIANA*       CLOUDY    30  21  69 SE12G18   30.03F
LATROBE        CLOUDY    36  23  60 S9        30.02F
WASHINGTON CO* CLOUDY    36  21  55 SE6       29.96F
$$

PAZ004>006-010>012-017>019-024>028-033>037-041-042-045-046-049>053-031900-
CENTRAL PENNSYLVANIA

CITY           SKY/WX    TMP DP  RH WIND       PRES   REMARKS
BRADFORD       LGT SNOW  19  14  81 SE13      29.95F WCI   6
DUBOIS         CLOUDY    22  17  81 SE8G22    29.99F WCI  12
CLEARFIELD     MIX PCPN  24  16  71 SE6       30.08F
JOHNSTOWN      CLOUDY    25  16  68 S15G21    30.00F WCI  13
ALTOONA        CLOUDY    27  14  58 S14       30.11F
STATE COLLEGE  CLOUDY    23  16  74 S6        30.13F
WILLIAMSPORT   LGT SNOW  23  17  78 E8        30.23F VSB 3/4 WCI  14
SELINSGROVE    LGT SNOW  24  20  84 S7        30.27F FOG
FT INDIANTOWN  LGT SNOW  25  17  70 VRB6      30.26F
CAPITAL CITY   CLOUDY    29  14  53 SE9       30.26F
HARRISBURG     FLURRIES  30  14  51 SE12      30.26F
YORK           MIX PCPN  29  13  51 S10G17    30.26F
$$

PAZ038>040-043-044-047-048-054-055-060>062-067>071-031900-
EASTERN PENNSYLVANIA

CITY           SKY/WX    TMP DP  RH WIND       PRES   REMARKS
SCRANTON       CLOUDY    27   6  41 SW9       30.21F
MOUNT POCONO   CLOUDY    20   7  57 S10       30.17F WCI   9
ALLENTOWN      LGT SNOW  26  13  57 S8        30.30F
QUAKERTOWN*    CLOUDY    27  12  54 S7        30.30F
READING        CLOUDY    28  11  48 S8        30.28F
LANCASTER      MIX PCPN  28  15  58 SE12      30.26F
COATESVILLE    MOCLDY    30  16  55 SE10      30.28F
POTTSTOWN      CLOUDY    29  11  47 VRB6      30.30F
BLUE BELL      PTSUNNY   32  14  47 SE7       30.30F
DOYLESTOWN     CLOUDY    27  12  53 S9        30.30F
WILLOW GROVE   NOT AVBL
NORTH PHILA    CLOUDY    33   9  36 VRB6      30.35F
PHILADELPHIA   CLOUDY    32  12  43 S7        30.34F
$$



USA.gov is the U.S. government's official web portal to all federal, state and local government web resources and services.